• In Uzbekistan
  • List of Countries
  • For 7 days
  • Water Temperature
  • Satellite Maps
  • Weather Map
  • Weather Widgets
  • user-avatar
    Login

    Hourly Weather Tadzhura

    Today, 20 July, Friday

    Time Temperature Precipitation Wind Pressure Humidity
    00:00 +39°C° 0 mm 3 mps 751 mmHg 29%
    01:00 +39°C° 0 mm 3 mps 751 mmHg 31%
    02:00 +39°C° 0 mm 2 mps 751 mmHg 33%
    03:00 +38°C° 0 mm 2 mps 751 mmHg 35%
    04:00 +38°C° 0 mm 3 mps 751 mmHg 36%
    05:00 +38°C° 0 mm 4 mps 752 mmHg 37%
    06:00 +37°C° 0 mm 4 mps 752 mmHg 38%
    07:00 +39°C° 0 mm 5 mps 752 mmHg 36%
    08:00 +40°C° 0 mm 5 mps 753 mmHg 35%
    09:00 +41°C° 0 mm 6 mps 753 mmHg 32%
    10:00 +42°C° 0 mm 6 mps 752 mmHg 31%
    11:00 +43°C° 0 mm 5 mps 752 mmHg 29%
    12:00 +45°C° 0 mm 5 mps 752 mmHg 27%
    13:00 +45°C° 0 mm 5 mps 751 mmHg 26%
    14:00 +45°C° 0 mm 4 mps 751 mmHg 25%
    15:00 +47°C° 0 mm 4 mps 749 mmHg 23%
    16:00 +47°C° 0 mm 4 mps 749 mmHg 24%
    17:00 +45°C° 0 mm 4 mps 749 mmHg 25%
    18:00 +45°C° 0 mm 4 mps 749 mmHg 26%
    19:00 +45°C° 0.7 mm 5 mps 749 mmHg 29%
    20:00 +43°C° 0.7 mm 5 mps 750 mmHg 33%
    21:00 +42°C° 0.7 mm 6 mps 750 mmHg 36%
    22:00 +41°C° 0.4 mm 6 mps 750 mmHg 36%
    23:00 +41°C° 0.4 mm 5 mps 751 mmHg 36%

    Tomorrow, 21 July, Saturday

    Time Temperature Precipitation Wind Pressure Humidity
    00:00 +41°C° 0.4 mm 5 mps 751 mmHg 36%
    01:00 +40°C° 0 mm 4 mps 751 mmHg 38%
    02:00 +38°C° 0 mm 4 mps 751 mmHg 40%
    03:00 +38°C° 0 mm 3 mps 751 mmHg 42%
    04:00 +37°C° 0 mm 4 mps 752 mmHg 45%
    05:00 +36°C° 0 mm 5 mps 752 mmHg 48%
    06:00 +35°C° 0 mm 6 mps 752 mmHg 51%
    07:00 +36°C° 0.1 mm 7 mps 753 mmHg 50%
    08:00 +36°C° 0.1 mm 7 mps 753 mmHg 50%
    09:00 +36°C° 0.1 mm 7 mps 753 mmHg 49%
    10:00 +38°C° 0 mm 7 mps 753 mmHg 45%
    11:00 +40°C° 0 mm 7 mps 753 mmHg 40%
    12:00 +41°C° 0 mm 7 mps 753 mmHg 36%
    13:00 +41°C° 0.4 mm 6 mps 752 mmHg 35%
    14:00 +42°C° 0.4 mm 5 mps 752 mmHg 33%
    15:00 +42°C° 0.4 mm 4 mps 751 mmHg 32%
    16:00 +42°C° 0.9 mm 4 mps 751 mmHg 33%
    17:00 +41°C° 0.9 mm 4 mps 751 mmHg 35%
    18:00 +40°C° 0.9 mm 3 mps 750 mmHg 36%
    19:00 +40°C° 0.4 mm 3 mps 751 mmHg 37%
    20:00 +39°C° 0.4 mm 3 mps 751 mmHg 39%
    21:00 +39°C° 0.4 mm 2 mps 752 mmHg 41%
    22:00 +39°C° 0.2 mm 2 mps 752 mmHg 41%
    23:00 +38°C° 0.2 mm 2 mps 752 mmHg 41%

    Day after tomorrow, 22 July, Sunday

    Time Temperature Precipitation Wind Pressure Humidity
    00:00 +38°C° 0.2 mm 2 mps 752 mmHg 42%
    01:00 +38°C° 0.1 mm 2 mps 752 mmHg 42%
    02:00 +38°C° 0.1 mm 3 mps 752 mmHg 42%
    03:00 +38°C° 0.1 mm 3 mps 752 mmHg 43%
    04:00 +37°C° 0.1 mm 3 mps 752 mmHg 43%
    05:00 +37°C° 0.1 mm 3 mps 752 mmHg 44%
    06:00 +36°C° 0.1 mm 3 mps 752 mmHg 44%
    07:00 +37°C° 0.1 mm 4 mps 753 mmHg 42%
    08:00 +37°C° 0.1 mm 4 mps 753 mmHg 39%
    09:00 +38°C° 0.1 mm 4 mps 753 mmHg 37%
    10:00 +40°C° 0 mm 4 mps 753 mmHg 34%
    11:00 +41°C° 0 mm 5 mps 753 mmHg 32%
    12:00 +42°C° 0 mm 5 mps 752 mmHg 29%
    13:00 +43°C° 0 mm 4 mps 752 mmHg 27%
    14:00 +44°C° 0 mm 4 mps 751 mmHg 26%
    15:00 +44°C° 0 mm 3 mps 750 mmHg 25%
    16:00 +44°C° 0.2 mm 3 mps 750 mmHg 25%
    17:00 +44°C° 0.2 mm 3 mps 750 mmHg 26%
    18:00 +43°C° 0.2 mm 3 mps 749 mmHg 26%
    19:00 +42°C° 0.1 mm 2 mps 750 mmHg 29%
    20:00 +41°C° 0.1 mm 2 mps 751 mmHg 31%
    21:00 +40°C° 0.1 mm 1 mps 751 mmHg 33%
    22:00 +40°C° 0 mm 1 mps 751 mmHg 34%
    23:00 +39°C° 0 mm 1 mps 751 mmHg 35%

    23 July, Monday

    Time Temperature Precipitation Wind Pressure Humidity
    00:00 +39°C° 0 mm 1 mps 751 mmHg 36%
    01:00 +39°C° 0 mm 2 mps 751 mmHg 36%
    02:00 +39°C° 0 mm 2 mps 751 mmHg 36%
    03:00 +38°C° 0 mm 3 mps 750 mmHg 36%
    04:00 +38°C° 0 mm 4 mps 751 mmHg 36%
    05:00 +38°C° 0 mm 4 mps 751 mmHg 37%
    06:00 +37°C° 0 mm 4 mps 751 mmHg 37%
    07:00 +39°C° 0 mm 5 mps 752 mmHg 35%
    08:00 +39°C° 0 mm 5 mps 752 mmHg 33%
    09:00 +40°C° 0 mm 5 mps 752 mmHg 32%
    10:00 +41°C° 0 mm 5 mps 752 mmHg 30%
    11:00 +42°C° 0 mm 5 mps 752 mmHg 28%
    12:00 +44°C° 0 mm 6 mps 752 mmHg 26%
    13:00 +43°C° 0.1 mm 5 mps 751 mmHg 25%
    14:00 +45°C° 0.1 mm 5 mps 750 mmHg 24%
    15:00 +44°C° 0.1 mm 4 mps 749 mmHg 24%
    16:00 +44°C° 0.2 mm 3 mps 749 mmHg 24%
    17:00 +44°C° 0.2 mm 3 mps 749 mmHg 25%
    18:00 +43°C° 0.2 mm 3 mps 749 mmHg 25%
    19:00 +43°C° 0.2 mm 3 mps 750 mmHg 27%
    20:00 +42°C° 0.2 mm 3 mps 750 mmHg 29%
    21:00 +42°C° 0.2 mm 3 mps 751 mmHg 31%
    22:00 +40°C° 0 mm 3 mps 751 mmHg 32%
    23:00 +40°C° 0 mm 3 mps 751 mmHg 33%

    24 July, Tuesday

    Time Temperature Precipitation Wind Pressure Humidity
    00:00 +39°C° 0 mm 3 mps 751 mmHg 34%
    01:00 +39°C° 0 mm 3 mps 751 mmHg 34%
    02:00 +39°C° 0 mm 3 mps 750 mmHg 35%
    03:00 +38°C° 0 mm 3 mps 750 mmHg 35%
    04:00 +38°C° 0 mm 3 mps 751 mmHg 36%
    05:00 +38°C° 0 mm 3 mps 751 mmHg 37%
    06:00 +37°C° 0 mm 3 mps 751 mmHg 37%
    07:00 +38°C° 0 mm 4 mps 752 mmHg 36%
    08:00 +38°C° 0 mm 4 mps 752 mmHg 35%
    09:00 +40°C° 0 mm 5 mps 753 mmHg 34%
    10:00 +40°C° 0 mm 5 mps 752 mmHg 32%
    11:00 +41°C° 0 mm 5 mps 752 mmHg 31%
    12:00 +42°C° 0 mm 5 mps 751 mmHg 29%
    13:00 +43°C° 0 mm 5 mps 751 mmHg 28%
    14:00 +43°C° 0 mm 5 mps 750 mmHg 26%
    15:00 +44°C° 0 mm 4 mps 749 mmHg 25%
    16:00 +43°C° 0.6 mm 4 mps 749 mmHg 26%
    17:00 +43°C° 0.6 mm 3 mps 749 mmHg 27%
    18:00 +42°C° 0.6 mm 3 mps 749 mmHg 28%
    19:00 +42°C° 0.5 mm 3 mps 750 mmHg 30%
    20:00 +41°C° 0.5 mm 4 mps 751 mmHg 32%
    21:00 +41°C° 0.5 mm 4 mps 751 mmHg 35%
    22:00 +40°C° 0 mm 4 mps 751 mmHg 37%
    23:00 +39°C° 0 mm 5 mps 751 mmHg 39%

    25 July, Wednesday

    Time Temperature Precipitation Wind Pressure Humidity
    00:00 +39°C° 0 mm 5 mps 751 mmHg 41%
    01:00 +39°C° 0 mm 5 mps 751 mmHg 43%
    02:00 +37°C° 0 mm 4 mps 751 mmHg 44%
    03:00 +37°C° 0 mm 4 mps 751 mmHg 46%
    04:00 +36°C° 0 mm 4 mps 751 mmHg 47%
    05:00 +36°C° 0 mm 3 mps 752 mmHg 47%
    06:00 +36°C° 0 mm 3 mps 752 mmHg 47%
    07:00 +36°C° 0 mm 4 mps 752 mmHg 45%
    08:00 +37°C° 0 mm 4 mps 753 mmHg 42%
    09:00 +38°C° 0 mm 4 mps 753 mmHg 40%
    10:00 +39°C° 0.1 mm 5 mps 753 mmHg 38%
    11:00 +40°C° 0.1 mm 5 mps 752 mmHg 37%
    12:00 +41°C° 0.1 mm 6 mps 752 mmHg 35%
    13:00 +42°C° 0 mm 5 mps 751 mmHg 34%
    14:00 +42°C° 0 mm 5 mps 750 mmHg 32%
    15:00 +43°C° 0 mm 4 mps 749 mmHg 31%
    16:00 +43°C° 0.2 mm 4 mps 749 mmHg 31%
    17:00 +43°C° 0.2 mm 3 mps 749 mmHg 31%
    18:00 +43°C° 0.2 mm 3 mps 750 mmHg 30%
    19:00 +42°C° 0.2 mm 3 mps 750 mmHg 32%
    20:00 +40°C° 0.2 mm 3 mps 751 mmHg 33%
    21:00 +40°C° 0.2 mm 3 mps 751 mmHg 35%
    22:00 +39°C° 0 mm 3 mps 751 mmHg 36%
    23:00 +39°C° 0 mm 3 mps 751 mmHg 37%
    Show more